[[{"header":{"parameterUnit":"m.s-1","parameterCategory":1,"la1":30.2991,"la2":30.254,"lo1":-89.0895,"lo2":-89.0444,"dy":0.0017,"dx":0.0017,"nx":28,"ny":28,"refTime":"2023-08-20T21:00:00:Z","depth":0,"parameterNumber":2,"parameterNumberName":"U-component_of_WINDS"},"data":[0,0,0,0,0,0,0,0,0,0,0,0,0,0,0,0,0,0,0,0,0,0,0,0,0,0,0,0,0,0,0,0,0,0,0,0,0,0,0,0,0,0,0,0,0,0,0,0,0,0,0,0,0,0,0,0,0,0,-6.0602,-6.0602,0,-6.0607,-6.0607,-6.0607,-6.0522,-6.052,-6.0517,-6.0515,-6.0521,-6.0523,-6.0525,0,0,0,0,0,0,0,0,0,0,0,0,0,-6.0521,-6.0523,-6.0602,-6.0602,-6.0602,-6.0607,-6.0607,-6.0607,-6.0523,-6.052,-6.0517,-6.0514,-6.052,-6.0523,-6.0526,0,0,0,0,0,0,0,0,0,0,0,0,0,-6.0544,-6.0523,-6.0602,-6.056,-6.0557,-6.0607,-6.0607,-6.0607,-6.0523,-6.052,-6.0516,-6.0513,-6.0519,-6.0522,-6.0526,-6.0616,0,0,-6.0536,-6.0538,0,0,0,0,0,0,0,0,-6.0543,-6.0547,-6.0566,-6.0563,-6.0559,-6.056,-6.058,-6.061,-6.0524,-6.0536,-6.0515,-6.0511,-6.0537,-6.0539,-6.0547,-6.0617,-6.0617,-6.0537,-6.0539,-6.054,-6.0541,0,0,0,0,0,0,0,-6.0541,-6.0546,-6.0604,-6.0567,-6.0562,-6.0542,-6.0542,-6.0586,-6.0556,-6.0535,-6.0528,-6.053,-6.0534,-6.0544,-6.0547,-6.0617,-6.0537,-6.054,-6.0542,-6.0543,-6.0763,-6.0766,0,0,0,0,0,0,-6.0545,-6.0546,-6.0604,-6.0604,-6.0542,-6.0546,-6.0546,-6.0563,-6.0555,-6.055,-6.0533,-6.0526,-6.054,-6.0543,-6.0547,-6.0652,-6.054,-6.0543,-6.0545,-6.0759,-6.0764,-6.0768,0,0,0,0,0,0,-6.0544,-6.0551,-6.0603,-6.0573,-6.0578,-6.0552,-6.0572,-6.0565,-6.0575,-6.0554,-6.0548,-6.0548,-6.0537,-6.0542,-6.06,-6.0651,-6.0545,-6.0548,-6.0755,-6.076,-6.0766,-6.0863,0,0,0,0,0,0,-6.0542,-6.0551,-6.0584,-6.0575,-6.058,-6.0656,-6.0575,-6.0568,-6.0581,-6.0572,-6.0567,-6.0562,-6.0535,-6.0595,-6.0603,-6.0653,-6.0551,-6.075,-6.0757,-6.0764,-6.0855,-6.0871,-6.0885,0,0,0,0,0,-6.0539,-6.0611,-6.0586,-6.0594,-6.0621,-6.0659,-6.0662,-6.0629,-6.0586,-6.0619,-6.0606,-6.0563,-6.0645,-6.0602,-6.061,-6.0662,-6.0746,-6.0755,-6.0763,-6.0848,-6.0868,-6.0885,0,0,0,0,0,0,-6.0626,-6.0609,-6.0581,-6.0652,-6.0658,-6.0645,-6.0685,-6.0651,-6.0669,-6.066,-6.0618,-6.0618,-6.0683,-6.0679,-6.0631,-6.075,-6.0688,-6.0699,-6.075,-6.0768,-6.0783,-6.0781,-6.0554,0,0,0,0,0,-6.0654,-6.0686,-6.0669,-6.0733,-6.0738,-6.0712,-6.0727,-6.0702,-6.0706,-6.0708,-6.0699,-6.0705,-6.0732,-6.0751,-6.0774,-6.0856,-6.0853,-6.0896,-6.0911,-6.0924,-6.0932,-6.0976,-6.0994,-6.0796,-6.0795,-6.0795,0,0,-6.071,-6.0705,-6.0727,-6.0751,-6.0752,-6.0787,-6.0714,-6.0753,-6.0779,-6.0714,-6.0767,-6.0762,-6.0767,-6.0837,-6.0868,-6.0836,-6.0987,-6.0934,-6.0945,-6.0946,-6.0986,-6.1005,-6.1022,-6.0801,-6.08,-6.0799,0,0,-6.0831,-6.0831,-6.0884,-6.0888,-6.0892,-6.0875,-6.0888,-6.0881,-6.0875,-6.093,-6.0882,-6.0913,-6.096,-6.0965,-6.0974,-6.1103,-6.1063,-6.1112,-6.1189,-6.1232,-6.1248,-6.1261,-6.1306,-6.1323,-6.1121,-6.1122,-6.1122,0,-6.09,-6.095,-6.0916,-6.0959,-6.0971,-6.0916,-6.097,-6.0976,-6.0988,-6.0998,-6.0963,-6.1023,-6.1022,-6.1093,-6.1125,-6.1134,-6.1148,-6.111,-6.1248,-6.1262,-6.1274,-6.1316,-6.1333,-6.1127,-6.1127,-6.1126,-6.1126,0,-6.1035,-6.1071,-6.1114,-6.1128,-6.1145,-6.1194,-6.1168,-6.1191,-6.1165,-6.1153,-6.121,-6.1208,-6.123,-6.1246,-6.1221,-6.1315,-6.1295,-6.1255,-6.1191,-6.1299,-6.1338,-6.1354,-6.1136,-6.1134,-6.1132,-6.113,0,0,-6.1205,-6.1203,-6.1219,-6.1225,-6.1227,-6.1255,-6.1303,-6.1326,-6.1346,-6.1358,-6.1396,-6.144,-6.1404,-6.1414,-6.139,-6.1429,-6.153,-6.1384,-6.1383,-6.1409,-6.1633,-6.1661,-6.168,-6.1506,-6.1509,-6.1511,-6.1632,0,-6.1321,-6.1401,-6.1374,-6.1455,-6.1488,-6.1439,-6.1481,-6.1488,-6.1479,-6.1506,-6.1496,-6.1528,-6.1478,-6.1484,-6.152,-6.151,-6.1574,-6.1501,-6.1541,-6.1543,-6.1538,-6.1701,-6.173,-6.1843,-6.1647,-6.165,-6.1652,0,-6.1465,-6.1484,-6.1569,-6.1568,-6.1581,-6.1619,-6.1639,-6.1666,-6.1674,-6.1665,-6.1679,-6.1648,-6.1696,-6.1636,-6.1701,-6.1653,-6.1668,-6.1667,-6.167,-6.167,-6.1601,-6.1703,-6.1879,-6.1895,-6.1676,-6.1674,-6.1672,0,-6.1579,-6.1626,-6.1683,-6.169,-6.1691,-6.1719,-6.172,-6.1725,-6.1742,-6.1761,-6.1771,-6.1796,-6.1808,-6.1828,-6.1805,-6.1764,-6.1875,-6.1812,-6.1868,-6.1869,-6.189,-6.1888,-6.2069,-6.1905,-6.1905,-6.1905,-6.1905,0,-6.1709,-6.1763,-6.1734,-6.1768,-6.1828,-6.1798,-6.1858,-6.1855,-6.186,-6.1894,-6.1855,-6.1888,-6.1857,-6.1887,-6.187,-6.1927,-6.1934,-6.1928,-6.1922,-6.193,-6.193,-6.1936,-6.1927,-6.1909,-6.1908,-6.1907,-6.1907,0,-6.1844,-6.1827,-6.1886,-6.1883,-6.1884,-6.1928,-6.1926,-6.1959,-6.1949,-6.1993,-6.2001,-6.1985,-6.202,-6.2,-6.2035,-6.2024,-6.2098,-6.2083,-6.2095,-6.209,-6.2146,-6.214,-6.2335,-6.2358,-6.2182,-6.2184,-6.2185,0,-6.1926,-6.1967,-6.197,-6.199,-6.1995,-6.2028,-6.2045,-6.2019,-6.2039,-6.2053,-6.2085,-6.2116,-6.2139,-6.2197,-6.2189,-6.2216,-6.22,-6.2266,-6.2203,-6.221,-6.2199,-6.2195,-6.2199,-6.2277,-6.228,-6.2281,-6.2283,0,-6.2074,-6.2065,-6.2091,-6.2117,-6.2139,-6.2157,-6.2172,-6.2191,-6.2166,-6.2191,-6.2225,-6.2244,-6.2281,-6.2313,-6.2337,-6.2339,-6.2307,-6.2304,-6.2317,-6.2324,-6.2329,-6.2325,-6.2127,-6.2298,-6.2296,-6.2295,-6.2294,-6.2294,-6.2184,-6.2218,-6.2226,-6.2258,-6.2267,-6.2283,-6.2314,-6.2309,-6.2338,-6.2366,-6.235,-6.2391,-6.2401,-6.2431,-6.2438,-6.2471,-6.2444,-6.2465,-6.2469,-6.2474,-6.2481,-6.2327,-6.2475,-6.2475,-6.2474,-6.2474,-6.2474,0,-6.2328,-6.2332,-6.2362,-6.2385,-6.2411,-6.2381,-6.2397,-6.242,-6.2457,-6.2469,-6.2494,-6.2536,-6.2567,-6.2564,-6.2593,-6.262,-6.2606,-6.2628,-6.2624,-6.2625,-6.2504,-6.2488,-6.2639,-6.2639,-6.2639,-6.2639,-6.2639,-6.2639,-6.2406,-6.2463,-6.2455,-6.2516,-6.252,-6.256,-6.2572,-6.2587,-6.2597,-6.2645,-6.2672,-6.267,-6.2676,-6.2706,-6.2734,-6.2732,-6.2744,-6.2772,-6.2764,-6.265,-6.2634,-6.2618,-6.2603,-6.2775,-6.2775,-6.2882,-6.2883,-6.2884]},{"header":{"parameterUnit":"m.s-1","parameterCategory":1,"la1":30.2991,"la2":30.254,"lo1":-89.0895,"lo2":-89.0444,"dy":0.0017,"dx":0.0017,"nx":28,"ny":28,"refTime":"2023-08-20T21:00:00:Z","depth":0,"parameterNumber":3,"parameterNumberName":"V-component_of_WINDS"},"data":[0,0,0,0,0,0,0,0,0,0,0,0,0,0,0,0,0,0,0,0,0,0,0,0,0,0,0,0,0,0,0,0,0,0,0,0,0,0,0,0,0,0,0,0,0,0,0,0,0,0,0,0,0,0,0,0,0,0,2.9276,2.9277,0,2.9364,2.9365,2.9366,2.9477,2.9479,2.9481,2.9482,2.9567,2.9567,2.9568,0,0,0,0,0,0,0,0,0,0,0,0,0,2.9203,2.9203,2.9276,2.9277,2.9278,2.9363,2.9365,2.9366,2.9477,2.9479,2.9481,2.9483,2.9567,2.9567,2.9568,0,0,0,0,0,0,0,0,0,0,0,0,0,2.9256,2.9204,2.9276,2.9344,2.9351,2.9363,2.9365,2.9366,2.9476,2.9479,2.9482,2.9484,2.9566,2.9567,2.9568,2.9519,0,0,2.9571,2.9571,0,0,0,0,0,0,0,0,2.9253,2.9259,2.9333,2.9339,2.9347,2.9412,2.937,2.9417,2.9476,2.9429,2.9482,2.9486,2.9513,2.9518,2.9529,2.9523,2.9526,2.9571,2.9571,2.9572,2.9572,0,0,0,0,0,0,0,2.9249,2.9256,2.9311,2.9334,2.9343,2.9369,2.938,2.9379,2.9454,2.9433,2.9441,2.945,2.9517,2.9528,2.9531,2.9528,2.9571,2.9571,2.9572,2.9572,2.9488,2.9486,0,0,0,0,0,0,2.9236,2.9252,2.9308,2.9313,2.9306,2.9368,2.938,2.9389,2.9455,2.9467,2.9448,2.9455,2.9525,2.953,2.9535,2.9483,2.9572,2.9572,2.9573,2.9491,2.9488,2.9485,0,0,0,0,0,0,2.9234,2.924,2.9304,2.9285,2.9295,2.9367,2.9375,2.9389,2.9399,2.9466,2.948,2.9445,2.9527,2.9534,2.9523,2.9487,2.9573,2.9574,2.9494,2.949,2.9486,2.9377,0,0,0,0,0,0,2.9231,2.9238,2.9221,2.9284,2.9296,2.9291,2.9373,2.9389,2.9401,2.9411,2.9467,2.9478,2.953,2.9521,2.9524,2.949,2.9574,2.9498,2.9492,2.9487,2.9384,2.9369,2.9357,0,0,0,0,0,2.9228,2.9185,2.9219,2.9225,2.9276,2.9289,2.9296,2.9357,2.9398,2.938,2.9424,2.9477,2.9491,2.9519,2.9523,2.9489,2.95,2.9494,2.9488,2.939,2.9372,2.9357,0,0,0,0,0,0,2.9113,2.9194,2.9233,2.9209,2.9242,2.9308,2.9287,2.9336,2.9356,2.9365,2.9439,2.9451,2.9431,2.9459,2.9489,2.9446,2.9503,2.9498,2.9428,2.9411,2.9398,2.9391,2.9575,0,0,0,0,0,2.9086,2.9091,2.9161,2.9133,2.9148,2.9214,2.9223,2.9268,2.9303,2.9317,2.936,2.9391,2.9403,2.9409,2.9424,2.9389,2.9403,2.9368,2.9354,2.9343,2.9337,2.9322,2.9307,2.9464,2.9464,2.9464,0,0,2.9027,2.9072,2.9071,2.9111,2.9141,2.9145,2.9225,2.9224,2.9227,2.9316,2.931,2.9342,2.9382,2.936,2.9352,2.9382,2.9297,2.9335,2.9326,2.9326,2.9314,2.9299,2.9286,2.946,2.9461,2.9462,0,0,2.8923,2.8957,2.8939,2.8969,2.9015,2.906,2.9056,2.9115,2.9141,2.9136,2.9203,2.9207,2.9226,2.9253,2.9268,2.9177,2.9227,2.918,2.9109,2.9094,2.9081,2.9071,2.9039,2.9026,2.9174,2.9174,2.9173,0,2.8844,2.8853,2.8922,2.8919,2.8935,2.9019,2.9,2.9025,2.9072,2.9081,2.9115,2.9143,2.9175,2.9161,2.9139,2.9149,2.9146,2.9173,2.9078,2.9068,2.9059,2.9029,2.9017,2.9168,2.9168,2.9169,2.917,0,2.8754,2.8759,2.8738,2.8785,2.8799,2.8787,2.8855,2.886,2.8905,2.8947,2.8941,2.8984,2.9009,2.901,2.9052,2.9002,2.9019,2.9065,2.9124,2.9037,2.901,2.8999,2.9159,2.9161,2.9163,2.9164,0,0,2.8577,2.8665,2.8656,2.8679,2.8737,2.8742,2.8735,2.8762,2.8766,2.8796,2.8792,2.8808,2.8851,2.8869,2.8915,2.8902,2.8828,2.8949,2.8952,2.8925,2.8775,2.874,2.8726,2.8862,2.886,2.8859,2.8772,0,2.8483,2.8477,2.8541,2.8517,2.8523,2.8604,2.8599,2.8633,2.8673,2.8683,2.8726,2.8736,2.8792,2.8804,2.8795,2.8839,2.8799,2.8846,2.8857,2.8857,2.8844,2.8712,2.8674,2.859,2.8762,2.876,2.8759,0,2.8372,2.8399,2.8376,2.8439,2.8443,2.8437,2.8468,2.8477,2.8519,2.8548,2.857,2.8624,2.8621,2.8679,2.8676,2.8707,2.8716,2.8738,2.8737,2.8739,2.8802,2.871,2.8565,2.8552,2.8743,2.8744,2.8745,0,2.8245,2.8276,2.8267,2.8284,2.8356,2.835,2.8379,2.8424,2.8437,2.8464,2.8473,2.8498,2.8512,2.853,2.859,2.8626,2.858,2.8642,2.8604,2.8602,2.8589,2.8588,2.8442,2.8595,2.8596,2.8596,2.8596,0,2.8133,2.8116,2.8211,2.8205,2.8189,2.8263,2.8245,2.8282,2.8321,2.8324,2.8396,2.8396,2.8476,2.8485,2.8532,2.8522,2.8528,2.8551,2.8564,2.8544,2.8541,2.855,2.8557,2.8593,2.8593,2.8594,2.8595,0,2.7987,2.8051,2.8047,2.8116,2.8133,2.8118,2.8178,2.8175,2.822,2.8223,2.8227,2.8297,2.8313,2.8375,2.8404,2.8436,2.841,2.8435,2.8397,2.8405,2.8362,2.8365,2.8216,2.82,2.8363,2.8362,2.836,0,2.7911,2.79,2.797,2.7978,2.8005,2.8016,2.8031,2.8104,2.8116,2.8164,2.8155,2.8177,2.8198,2.8218,2.8271,2.8294,2.832,2.8266,2.8323,2.8305,2.8319,2.8318,2.8318,2.8253,2.8251,2.8249,2.8248,0,2.7769,2.7802,2.7821,2.7852,2.7868,2.7895,2.7926,2.7928,2.8009,2.8019,2.8037,2.8053,2.8085,2.8105,2.8138,2.8167,2.822,2.823,2.8222,2.8201,2.8179,2.8191,2.8362,2.8232,2.8234,2.8235,2.8236,2.8236,2.7656,2.7651,2.77,2.7719,2.7751,2.7779,2.7781,2.7828,2.7844,2.7877,2.7919,2.7931,2.7975,2.8025,2.805,2.8061,2.809,2.8079,2.8076,2.8072,2.8062,2.8179,2.8067,2.8067,2.8068,2.8068,2.8069,0,2.7518,2.7554,2.7572,2.7614,2.763,2.7682,2.7719,2.7728,2.7739,2.7776,2.7796,2.7817,2.7838,2.7894,2.792,2.7917,2.7942,2.7921,2.7922,2.7928,2.8034,2.8038,2.7901,2.7901,2.7901,2.7901,2.7901,2.7901,2.7448,2.7442,2.7481,2.7492,2.7529,2.7543,2.756,2.7587,2.7617,2.7638,2.7656,2.7694,2.7738,2.7769,2.779,2.7806,2.7812,2.7783,2.7806,2.7904,2.792,2.7935,2.794,2.7783,2.7783,2.7699,2.7698,2.7698]}]]